[[{"header":{"parameterUnit":"m.s-1","parameterCategory":1,"la1":30.2992,"la2":30.254,"lo1":-89.0895,"lo2":-89.0443,"dy":0.0025,"dx":0.0025,"nx":19,"ny":19,"refTime":"2026-05-11T21:00:00:Z","depth":0,"parameterNumber":2,"parameterNumberName":"U-component_of_WINDS"},"data":[0,0,0,-4.3723,-4.3724,-4.3715,-4.3715,-4.3743,-4.3743,0,0,0,0,0,0,0,0,0,0,0,-4.375,-4.3751,-4.3723,-4.3724,-4.3715,-4.3715,-4.3743,-4.3743,0,0,0,0,0,0,0,0,0,0,0,-4.375,-4.3751,-4.3752,-4.3724,-4.3715,-4.3715,-4.3743,-4.3735,0,0,0,0,0,0,0,0,0,0,-4.3737,-4.3786,-4.3751,-4.3752,-4.3724,-4.3715,-4.3715,-4.3734,-4.3736,-4.3764,0,-4.3795,0,-4.377,-4.3748,-4.3748,0,0,0,-4.3706,-4.3785,-4.376,-4.3752,-4.3724,-4.3715,-4.3714,-4.3735,-4.3736,-4.3766,-4.3795,-4.3795,-4.3771,-4.3748,-4.3749,-4.397,-4.3972,0,0,-4.3706,-4.3762,-4.3759,-4.3762,-4.3767,-4.3714,-4.3714,-4.3735,-4.3771,-4.3795,-4.3795,-4.3771,-4.3749,-4.3749,-4.3968,-4.397,0,0,0,-4.372,-4.3763,-4.3737,-4.3762,-4.3758,-4.3715,-4.3714,-4.377,-4.3757,-4.3795,-4.3771,-4.3749,-4.375,-4.3966,-4.3969,-4.4117,0,0,0,-4.3719,-4.3771,-4.3738,-4.3772,-4.3758,-4.3764,-4.3749,-4.3755,-4.3756,-4.3771,-4.3749,-4.3751,-4.3964,-4.3968,-4.4108,-4.4178,0,0,0,-4.3743,-4.3773,-4.378,-4.3775,-4.3773,-4.3762,-4.375,-4.3754,-4.3742,-4.3748,-4.3751,-4.3962,-4.3967,-4.41,-4.4165,-4.4253,0,0,0,-4.3784,-4.3912,-4.3784,-4.3917,-4.3774,-4.3853,-4.3749,-4.3805,-4.3828,-4.3749,-4.3964,-4.3969,-4.4098,-4.4157,-4.4245,-4.4338,-4.4382,0,0,-4.3977,-4.3937,-4.4011,-4.3896,-4.4012,-4.385,-4.3987,-4.3955,-4.3905,-4.3951,-4.3956,-4.4111,-4.4164,-4.4251,-4.4603,-4.4638,0,0,0,-4.4091,-4.4146,-4.4164,-4.4188,-4.4166,-4.4153,-4.4093,-4.4081,-4.4117,-4.394,-4.4163,-4.4193,-4.4242,-4.4284,-4.4314,-4.4353,-4.399,-4.3989,-4.3989,-4.4447,-4.4374,-4.4492,-4.4418,-4.4442,-4.4378,-4.4391,-4.4363,-4.4284,-4.4338,-4.4352,-4.4575,-4.4626,-4.4648,-4.4689,-4.4393,-4.4394,-4.4395,-4.4395,-4.4724,-4.479,-4.4679,-4.4753,-4.4676,-4.4737,-4.468,-4.4621,-4.4667,-4.4558,-4.4597,-4.4487,-4.4689,-4.4721,-4.4405,-4.4403,-4.4402,-4.4401,-4.44,-4.4951,-4.497,-4.4951,-4.4977,-4.5004,-4.4923,-4.4972,-4.4899,-4.483,-4.4869,-4.4876,-4.4873,-4.4863,-4.4877,-4.4878,-4.4878,-4.4879,-4.488,-4.488,-4.5195,-4.5169,-4.5219,-4.5205,-4.5209,-4.5206,-4.5141,-4.5143,-4.5127,-4.5069,-4.5069,-4.4985,-4.4721,-4.4657,-4.4892,-4.489,-4.4888,-4.4887,-4.4886,-4.5508,-4.5424,-4.5503,-4.5507,-4.5482,-4.5514,-4.5418,-4.5429,-4.542,-4.5446,-4.5351,-4.5167,-4.5122,-4.5098,-4.5045,-4.5366,-4.5366,-4.5366,-4.5366,-4.5701,-4.5669,-4.5731,-4.5743,-4.5746,-4.5666,-4.5756,-4.5705,-4.5641,-4.563,-4.5572,-4.5494,-4.5473,-4.544,-4.5409,-4.5358,-4.5751,-4.5752,-4.5752,-4.5889,-4.5854,-4.5946,-4.588,-4.5855,-4.5834,-4.5916,-4.5934,-4.5842,-4.5766,-4.562,-4.5604,-4.5478,-4.544,-4.5366,-4.5318,-4.5223,0,0]},{"header":{"parameterUnit":"m.s-1","parameterCategory":1,"la1":30.2992,"la2":30.254,"lo1":-89.0895,"lo2":-89.0443,"dy":0.0025,"dx":0.0025,"nx":19,"ny":19,"refTime":"2026-05-11T21:00:00:Z","depth":0,"parameterNumber":3,"parameterNumberName":"V-component_of_WINDS"},"data":[0,0,0,-5.7944,-5.7947,-5.8048,-5.8048,-5.8204,-5.8206,0,0,0,0,0,0,0,0,0,0,0,-5.7933,-5.7935,-5.7944,-5.7947,-5.8048,-5.8048,-5.8204,-5.8206,0,0,0,0,0,0,0,0,0,0,0,-5.7932,-5.7934,-5.7936,-5.7947,-5.8048,-5.8048,-5.8203,-5.8117,0,0,0,0,0,0,0,0,0,0,-5.8014,-5.8022,-5.7934,-5.7936,-5.7948,-5.8048,-5.8048,-5.8112,-5.8122,-5.817,0,-5.822,0,-5.8216,-5.8218,-5.8219,0,0,0,-5.7932,-5.8014,-5.8025,-5.7937,-5.7949,-5.8048,-5.7998,-5.8117,-5.8129,-5.8184,-5.8222,-5.8227,-5.8219,-5.8219,-5.822,-5.8554,-5.8556,0,0,-5.7927,-5.796,-5.8017,-5.8033,-5.8022,-5.7995,-5.8001,-5.8124,-5.8167,-5.8223,-5.823,-5.8221,-5.822,-5.8222,-5.8552,-5.8555,0,0,0,-5.7921,-5.7957,-5.7964,-5.8028,-5.8044,-5.7998,-5.8006,-5.8161,-5.8161,-5.8232,-5.8223,-5.8221,-5.8224,-5.8549,-5.8553,-5.87,0,0,0,-5.7916,-5.7953,-5.7962,-5.7984,-5.8043,-5.8105,-5.8041,-5.8153,-5.8165,-5.8222,-5.8221,-5.8225,-5.8547,-5.8551,-5.8691,-5.8764,0,0,0,-5.792,-5.7953,-5.7975,-5.7986,-5.8031,-5.8102,-5.8108,-5.8155,-5.8161,-5.8219,-5.8226,-5.8545,-5.855,-5.8682,-5.875,-5.8864,0,0,0,-5.7932,-5.8102,-5.7978,-5.8163,-5.803,-5.8192,-5.8107,-5.8225,-5.8292,-5.8222,-5.8547,-5.8553,-5.868,-5.8741,-5.8856,-5.8969,-5.9018,0,0,-5.8165,-5.8131,-5.8237,-5.8129,-5.8323,-5.8174,-5.8388,-5.8415,-5.8388,-5.85,-5.8507,-5.8694,-5.8749,-5.8862,-5.928,-5.932,0,0,0,-5.8322,-5.84,-5.8443,-5.8511,-5.8538,-5.8567,-5.8558,-5.8568,-5.8662,-5.8453,-5.8763,-5.8795,-5.886,-5.8913,-5.8947,-5.9001,-5.8578,-5.8577,-5.8576,-5.87,-5.8659,-5.8833,-5.8804,-5.887,-5.8861,-5.891,-5.8921,-5.8857,-5.8932,-5.8965,-5.9224,-5.9287,-5.9312,-5.937,-5.9019,-5.902,-5.902,-5.9021,-5.9039,-5.9143,-5.9057,-5.9195,-5.9149,-5.9263,-5.926,-5.9212,-5.9311,-5.9195,-5.925,-5.913,-5.9358,-5.9406,-5.9031,-5.9029,-5.9028,-5.9027,-5.9026,-5.9285,-5.9327,-5.9339,-5.9433,-5.9509,-5.9472,-5.9573,-5.9525,-5.9481,-5.9536,-5.9568,-5.9565,-5.9559,-5.9554,-5.9555,-5.9556,-5.9557,-5.9557,-5.9558,-5.9536,-5.9544,-5.9636,-5.968,-5.9718,-5.9761,-5.9754,-5.9789,-5.9815,-5.9773,-5.9773,-5.9704,-5.9387,-5.931,-5.9572,-5.9569,-5.9567,-5.9566,-5.9565,-5.99,-5.981,-5.9953,-5.9992,-6.004,-6.012,-6.0058,-6.0134,-6.0156,-6.0207,-6.0125,-5.9898,-5.9859,-5.9832,-5.9768,-6.0133,-6.0133,-6.0133,-6.0133,-6.0109,-6.0085,-6.0222,-6.0286,-6.0343,-6.0303,-6.0465,-6.046,-6.0441,-6.0452,-6.0391,-6.0301,-6.0276,-6.0252,-6.0216,-6.0156,-6.0611,-6.0611,-6.0611,-6.0332,-6.0311,-6.046,-6.0442,-6.0477,-6.0507,-6.0658,-6.0734,-6.0692,-6.063,-6.046,-6.044,-6.0294,-6.0248,-6.0185,-6.0129,-6.0018,0,0]}]]